Regional Weather Roundup
Issued by NWS

Home | Current Version | Previous Version | Text Only | Print | Product List | Glossary Off
Versions: 1 2 3 4 5 6 7 8 9 10 11 12 13 14 15 16 17 18 19 20 21 22 23 24 25 26 27 28 29 30 31 32 33 34 35 36 37 38 39 40 41 42 43 44 45 46 47 48 49 50

000
ASUS43 KOAX 300102
RWRNE

WEATHER ROUNDUP FOR NEBRASKA
NATIONAL WEATHER SERVICE OMAHA NE
800 PM CDT FRI JUL 29 2016

NOTES: SATELLITE DATA IS BEING USED TO AUGMENT CLOUD COVER ABOVE
       12000 FEET.
       "FAIR" INDICATES FEW OR NO CLOUDS BELOW 12,000 FEET WITH NO
       SIGNIFICANT WEATHER AND/OR OBSTRUCTIONS TO VISIBILITY.

  * THESE STATIONS DO NOT REPORT WEATHER SUCH AS RAIN...SNOW OR FOG.

NEZ001>004-019>022-054>056-300200-
NEBRASKA PANHANDLE

CITY           SKY/WX    TMP DP  RH WIND       PRES   REMARKS
SCOTTSBLUFF    TSTM      64  32  30 VRB5      30.13R
ALLIANCE       CLOUDY    72  61  68 S8        30.05F
CHADRON        LGT RAIN  71  62  73 E8        30.04R
SIDNEY         CLOUDY    74  58  57 NE10G18   30.11F THUNDER
$$

NEZ057>060-069>072-079>082-300200-
SOUTHWEST NEBRASKA

CITY           SKY/WX    TMP DP  RH WIND       PRES   REMARKS
NORTH PLATTE   CLOUDY    76  67  73 SE6       30.05R
IMPERIAL       MOSUNNY   78  63  59 SE6       30.06S
LEXINGTON      CLOUDY    75  66  73 E6        30.04R
MCCOOK         CLOUDY    82  61  48 NE5       30.03R
OGALLALA       CLOUDY    75  63  66 CALM      30.06S
$$

NEZ005>010-023>029-035>040-094-300200-
NORTH CENTRAL NEBRASKA

CITY           SKY/WX    TMP DP  RH WIND       PRES   REMARKS
VALENTINE      MOSUNNY   76  60  57 SE9       30.03S
AINSWORTH      PTCLDY    72  63  72 SE7       30.04F
BROKEN BOW     CLOUDY    73  65  75 E6        30.05R
O`NEILL        CLOUDY    76  55  47 CALM      30.05R
ORD            PTCLDY    76  59  55 CALM      30.02S
THEDFORD       CLOUDY    77  60  55 SE8       30.05F
$$

NEZ041-046>049-061>064-073>077-083>087-300200-
SOUTH CENTRAL NEBRASKA

CITY           SKY/WX    TMP DP  RH WIND       PRES   REMARKS
GRAND ISLAND   CLEAR     75  63  66 E5        30.03F
AURORA         CLEAR     74  64  71 E5        30.02S
HASTINGS       CLEAR     75  64  68 NE7       30.03S
HEBRON         CLEAR     79  63  57 E5        30.01R
HOLDREGE       CLEAR     75  66  73 NE5       30.03R
KEARNEY *      CLEAR     75  66  73 E5        30.04S
YORK           CLEAR     73  64  73 CALM      30.02S
$$

NEZ011>018-030>034-042>045-300200-
NORTHEAST NEBRASKA

CITY           SKY/WX    TMP DP  RH WIND       PRES   REMARKS
NORFOLK        CLEAR     75  56  51 E7        30.01F
ALBION         CLEAR     74  59  59 CALM      30.03R
BLAIR          CLEAR     75  64  69 NE7       30.02R
FREMONT        CLEAR     77  58  52 N3        30.02R
TEKAMAH        CLEAR     76  62  62 E5        30.01R
WAYNE          PTCLDY    75  64  69 NE3       30.03S
$$

NEZ050>053-065>068-078-088>093-300200-
SOUTHEAST NEBRASKA

CITY           SKY/WX    TMP DP  RH WIND       PRES   REMARKS
LINCOLN        CLEAR     78  60  53 NE8       30.01R
OMAHA EPPLEY   PTCLDY    77  62  59 NE9       30.00R
BEATRICE       CLEAR     78  60  55 NE7       30.00S
FALLS CITY     CLEAR     78  64  61 CALM      29.98S
NEBRASKA CITY  CLEAR     75  63  65 CALM      30.00S
PLATTSMOUTH    CLEAR     75  64  69 NE5       30.00S
$$

NEZ044-045-051>053-067-300200-
OMAHA AREA

CITY           SKY/WX    TMP DP  RH WIND       PRES   REMARKS
OMAHA EPPLEY   PTCLDY    77  62  59 NE9       30.00R
BLAIR          CLEAR     75  64  69 NE7       30.02R
FREMONT        CLEAR     77  58  52 N3        30.02R
MILLARD        PTCLDY    78  61  56 CALM      30.00S
OFFUTT AFB     CLEAR     75  64  67 NE7       30.00R
PLATTSMOUTH    CLEAR     75  64  69 NE5       30.00S
WAHOO          FAIR      76  63  64 CALM      30.01R
$$




USA.gov is the U.S. government's official web portal to all federal, state and local government web resources and services.